星链-30604 (STARLINK-30604 )

导读

STARLINK-30604是美国太空探索技术公司星链互联网卫星星座的一员,于2023年10月18日发射入轨,属于星链项目批量部署的低轨通信卫星。它承担为全球提供高速互联网接入服务的任务,尤其覆盖偏远地区等网络基础设施薄弱区域,助力星链低轨星座组网,进一步拓展全球卫星互联网的覆盖范围与服务能力。

基本信息
目录编号:
58075
目录名称:
STARLINK-30604
国际标识:
2023-160A
轨道中心:
EARTH
卫星名称:
星链-30604
卫星全名:
星链-30604 (STARLINK-30604 )
卫星状态:
在轨 (已飞行1052 天)
发射日期:
2023-10-18 UTC
国别 :
美国 (US)
星等 :
--
轨道信息
数据来源 国际轨道数据 AOE轨道数据
星历时间 2026-09-04T10:27:16+0800
9小时前
查看轨道信息
2026-09-03T22:00:00+0800
22小时前
查看轨道信息
半长轴 6861.225km 6861.3km
偏心率 0.0000133 0.0000036
轨道倾角 42.999° 43.000°
近地点辐角 269.144° 187.547°
升交点赤经 150.150° 153.084°
平近点角 90.940° 195.396°
近地点 482.996km 483.138km
远地点 483.18km 483.188km
周期 94.268分钟 94.269分钟
每日圈数 15.275672 15.275421
详细信息
固有亮度:
5
最大亮度:
0.3
卫星平台:
Starlink v2.0 mini
覆盖范围:
全球
运营商:
太空探索技术公司
运营商所在国:
美国
制造商(研发单位):
太空探索技术公司
制造商所在国:
美国
使用方式:
暂无
卫星简介
星链(Starlink)计划是由太空探索技术公司(SpaceX)提出的一个巨型低轨卫星互联网星座项目,计划在2019年至2024年间在太空搭建由约1.2万颗卫星组成的“星链”网络,其中1584颗将部署在地球上空550千米处的近地轨道,并从2020年开始工作。该卫星仍在工作。
2D轨道图
3D轨道图
轨道高度分析图
轨道倾角分析图
轨道综合分析图
查看轨道综合分析图
交会数据列表
事件ID 空间交会对象 最接近时刻(TCA) 交会距离 交会风险概率(CRP) 交会风险指数(CRI) 操作
CDM_260829-125005-807506-390021
2026-08-29T
12:50:57+0000
0.368 km
远距离
2.726937E-4 高风险 0.84
CDM_260906-062105-807506-646721
2026-09-06T
06:21:10+0000
0.725 km
远距离
5.853548E-5 中风险 0.7
CDM_260906-111305-807506-363521
2026-09-06T
11:13:01+0000
0.891 km
远距离
2.174302E-5 中风险 0.62
CDM_260906-134705-807506-212321
2026-09-06T
13:47:30+0000
0.876 km
远距离
2.020641E-5 中风险 0.61
CDM_260906-124705-807506-363521
2026-09-06T
12:47:11+0000
1.190 km
极远距离
8.048082E-6 低风险 0.53
CDM_260906-044705-807506-646721
2026-09-06T
04:47:01+0000
1.361 km
极远距离
7.008089E-6 低风险 0.52
CDM_260906-152105-807506-212321
2026-09-06T
15:21:40+0000
1.285 km
极远距离
5.436909E-6 低风险 0.5
CDM_260906-075505-807506-646721
2026-09-06T
07:55:19+0000
1.609 km
极远距离
4.065657E-6 低风险 0.47
CDM_260905-044005-807506-704121
2026-09-05T
04:40:28+0000
1.305 km
极远距离
4.059368E-6 低风险 0.47
CDM_260829-142505-807506-390021
2026-08-29T
14:25:06+0000
1.615 km
极远距离
3.480095E-6 低风险 0.46